Weather past 2 weeks in Bantam, Cocos Islands

Now
79 °F

Passing clouds.


Feels Like: 81 °F
Forecast: 77 / 80 °F
Wind: 15 mph from Southeast

Location: Cocos Island Airport

Current Time: Jul 25, 2014 at 9:09:32 AM

Latest Report: Jul 25, 2014 at 8:30 AM


Visibility: N/A

Pressure: 29.95 "Hg

Humidity: 74%

Dew point: 70 °F

Location of BantamLocation

Historic Weather in Bantam — Graph

°F

Bantam temperature yesterday

Maximum temperature yesterday: 82 °F (at 11:30 AM)
Minimum temperature yesterday: 77 °F (at 12:00 AM)
Average temperature yesterday: 79 °F

Past Weeks' High & Low Weather Summary

 TemperatureHumidityPressure
High82 °F (Jul 10, 9:30 AM)100% (Jul 14, 5:00 PM)30.01 "Hg (Jul 14, 5:00 PM)
Low73 °F (Jul 11, 4:00 AM)54% (Jul 22, 10:30 AM)29.80 "Hg (Jul 13, 4:00 PM)
Average79 °F76%29.90 "Hg
* Reported Jul 10 7:30 AM — Jul 25 7:30 AM, Bantam, Weather by CustomWeather, © 2014

Note: Actual official high and low records may vary slightly from our data, if they occured in-between our weather recording intervals... More about our weather records

Advertising

Bantam weather history for previous 24 hours

 ConditionsComfort  
Time TempWeatherWind HumidityBarometerVisibility
7:30 AM
Jul 25
77 °FPassing clouds.13 mph79%29.95 "HgN/A
7:00 AM77 °FPassing clouds.14 mph74%29.92 "HgN/A
6:30 AM77 °FPassing clouds.13 mph79%29.92 "HgN/A
6:00 AM77 °FPassing clouds.13 mph74%29.92 "HgN/A
5:30 AM77 °FPassing clouds.14 mph74%29.92 "HgN/A
5:00 AM77 °FClear.14 mph74%29.92 "HgN/A
4:30 AM77 °FPassing clouds.13 mph74%29.92 "HgN/A
4:00 AM77 °FClear.13 mph74%29.92 "HgN/A
3:30 AM77 °FPartly cloudy.14 mph79%29.92 "HgN/A
3:00 AM77 °FPassing clouds.12 mph79%29.92 "HgN/A
2:30 AM77 °FPassing clouds.12 mph79%29.92 "HgN/A
2:00 AM77 °FClear.14 mph74%29.92 "HgN/A
1:30 AM77 °FWarm.14 mph74%29.92 "HgN/A
1:00 AM77 °FClear.14 mph74%29.95 "HgN/A
12:30 AM77 °FClear.15 mph74%29.95 "HgN/A
12:00 AM77 °FClear.15 mph79%29.95 "HgN/A
11:30 PM
Jul 24
77 °FPassing clouds.15 mph79%29.95 "HgN/A
11:00 PM77 °FClear.14 mph79%29.95 "HgN/A
10:30 PM77 °FPassing clouds.15 mph79%29.95 "HgN/A
10:00 PM77 °FClear.14 mph74%29.95 "HgN/A
9:30 PM77 °FPassing clouds.16 mph74%29.95 "HgN/A
9:00 PM77 °FPassing clouds.14 mph79%29.95 "HgN/A
8:30 PM77 °FPassing clouds.15 mph79%29.95 "HgN/A
8:00 PM77 °FPassing clouds.17 mph74%29.95 "HgN/A
7:30 PM77 °FPassing clouds.18 mph79%29.92 "HgN/A
7:00 PM79 °FPassing clouds.17 mph70%29.92 "HgN/A
6:30 PM79 °FPartly sunny.20 mph74%29.89 "HgN/A
6:00 PM79 °FWarm.18 mph65%29.89 "HgN/A
5:30 PM79 °FScattered clouds.18 mph70%29.89 "HgN/A
5:00 PM79 °FScattered clouds.20 mph70%29.89 "HgN/A
4:30 PM81 °FPassing clouds.18 mph66%29.89 "HgN/A
4:00 PM81 °FPassing clouds.18 mph66%29.86 "HgN/A
3:30 PM81 °FPassing clouds.20 mph66%29.86 "HgN/A
3:00 PM81 °FScattered clouds.20 mph66%29.86 "HgN/A
2:30 PM81 °FPassing clouds.21 mph66%29.86 "HgN/A
2:00 PM82 °FPassing clouds.20 mph62%29.89 "HgN/A
1:30 PM81 °FPassing clouds.20 mph62%29.89 "HgN/A
1:00 PM82 °FPassing clouds.20 mph62%29.89 "HgN/A
12:30 PM81 °FPassing clouds.21 mph62%29.92 "HgN/A
12:00 PM81 °FPassing clouds.20 mph62%29.92 "HgN/A
11:30 AM82 °FPassing clouds.18 mph58%29.95 "HgN/A
11:00 AM81 °FSunny.20 mph62%29.95 "Hg10 mi
10:30 AM81 °FPassing clouds.20 mph62%29.95 "HgN/A
10:00 AM81 °FPassing clouds.21 mph62%29.98 "HgN/A
9:30 AM81 °FPassing clouds.18 mph66%29.98 "HgN/A
9:00 AM79 °FPassing clouds.20 mph74%29.98 "HgN/A
Weather by CustomWeather, © 2014

See weather overviewHow to use our weather pages